Flag Weather past 2 weeks in Butare, Rwanda

Now
79 °F

Scattered clouds.


Feels Like: 81 °F
Forecast: 59 / 75 °F
Wind: 10 mph from Northeast

Location: Kigali Airport

Current Time: Oct 31, 2014 at 3:49:04 PM

Latest Report: Oct 31, 2014 at 3:30 PM


Visibility: N/A

Pressure: 30.01 "Hg

Humidity: 61%

Dew point: 64 °F

Location of ButareLocation

Historic Weather in Butare — Graph

°F

Butare temperature yesterday

Maximum temperature yesterday: 75 °F (at 9:30 AM)
Minimum temperature yesterday: 66 °F (at 5:30 AM)
Average temperature yesterday: 69 °F

Past Weeks' High & Low Weather Summary

 TemperatureHumidityPressure
High86 °F (Oct 17, 1:30 PM)100% (Oct 17, 4:30 AM)30.24 "Hg (Oct 17, 4:30 AM)
Low34 °F (Oct 20, 10:00 AM)43% (Oct 17, 1:30 PM)29.86 "Hg (Oct 28, 2:30 PM)
Average70 °F84%30.10 "Hg
* Reported Oct 16 3:00 PM — Oct 31 3:00 PM, Butare, Weather by CustomWeather, © 2014

Note: Actual official high and low records may vary slightly from our data, if they occured in-between our weather recording intervals... More about our weather records

Advertising

Butare weather history for previous 24 hours

 ConditionsComfort  
Time TempWeatherWind HumidityBarometerVisibility
3:00 PM
Oct 31
77 °FPartly sunny.9 mph65%30.01 "HgN/A
2:30 PM75 °FPartly sunny.10 mph69%30.01 "HgN/A
2:00 PM79 °FPartly sunny.13 mph61%30.01 "HgN/A
1:30 PM81 °FScattered clouds.7 mph54%30.01 "HgN/A
1:00 PM82 °FScattered clouds.6 mph51%30.04 "HgN/A
12:30 PM81 °FScattered clouds.5 mph54%30.07 "HgN/A
12:00 PM81 °FScattered clouds.6 mph62%30.07 "HgN/A
11:30 AM79 °FScattered clouds.3 mph65%30.09 "HgN/A
11:00 AM77 °FScattered clouds.5 mph69%30.12 "HgN/A
10:30 AM75 °FScattered clouds.3 mph74%30.12 "HgN/A
10:00 AM73 °FScattered clouds.3 mph78%30.12 "HgN/A
9:30 AM70 °FPartly sunny.No wind88%30.15 "Hg5 mi
9:00 AM66 °FScattered clouds.No wind100%30.15 "Hg2 mi
7:30 AM64 °FFog.3 mph100%30.12 "HgN/A
7:00 AM63 °FFog.3 mph100%30.09 "HgN/A
6:30 AM61 °FFog.3 mph100%30.09 "HgN/A
6:00 AM61 °FFog.No wind100%30.07 "HgN/A
5:30 AM61 °FFog.No wind100%30.07 "HgN/A
5:00 AM63 °FPassing clouds.3 mph100%30.07 "Hg5 mi
3:00 AM64 °FPassing clouds.5 mph100%30.04 "HgN/A
2:30 AM64 °FPassing clouds.3 mph100%30.04 "HgN/A
2:00 AM64 °FPassing clouds.No wind100%30.04 "HgN/A
1:30 AM64 °FPassing clouds.No wind100%30.04 "HgN/A
1:00 AM66 °FPassing clouds.No wind100%30.07 "HgN/A
12:30 AM66 °FPassing clouds.3 mph100%30.07 "HgN/A
12:00 AM66 °FPassing clouds.3 mph100%30.07 "HgN/A
11:30 PM
Oct 30
66 °FPassing clouds.3 mph100%30.09 "HgN/A
11:00 PM66 °FPassing clouds.6 mph100%30.09 "HgN/A
10:30 PM66 °FPassing clouds.3 mph94%30.09 "HgN/A
10:00 PM66 °FPassing clouds.3 mph100%30.12 "HgN/A
9:30 PM66 °FPassing clouds.No wind100%30.12 "HgN/A
9:00 PM66 °FPassing clouds.No wind100%30.12 "HgN/A
8:30 PM66 °FPassing clouds.3 mph100%30.09 "HgN/A
8:00 PM66 °FPassing clouds.No wind100%30.09 "HgN/A
7:30 PM68 °FPassing clouds.No wind88%30.07 "HgN/A
7:00 PM68 °FPassing clouds.No wind88%30.07 "HgN/A
6:30 PM68 °FPassing clouds.No wind94%30.07 "HgN/A
6:00 PM68 °FPassing clouds.3 mph94%30.07 "HgN/A
5:30 PM70 °FScattered clouds.5 mph88%30.04 "HgN/A
5:00 PM70 °FScattered clouds.7 mph94%30.04 "HgN/A
4:30 PM70 °FScattered clouds.6 mph88%30.04 "HgN/A
4:00 PM72 °FScattered clouds.5 mph88%30.04 "HgN/A
3:30 PM72 °FScattered clouds.3 mph88%30.04 "HgN/A
3:00 PM70 °FPartly sunny.3 mph88%30.04 "HgN/A
Weather by CustomWeather, © 2014

See weather overviewHow to use our weather pages